START_TIME,STEP,MOV.,M6,t_acc.,M7,t_acc.,M19,t_acc.,H36,t_acc.
1979-07-16 09:00:27.280 ,0,0,0.,12.0,0.,12.0,0.,12.0,0.,12.0
1979-07-16 09:00:39.280 ,0,0,0.,12.0,0.,12.0,0.,12.0,0.,12.0
1979-07-16 09:00:51.280 ,0,1,0.,12.0,0.,12.0,0.,12.0,0.,12.0
1979-07-16 09:01:03.280 ,0,1,0.,12.0,0.,12.0,0.,12.0,0.,12.0
1979-07-16 09:01:15.280 ,0,0,0.,12.0,0.,12.0,0.,12.0,0.,12.0
1979-07-16 09:01:27.280 ,0,0,0.,12.0,0.,12.0,0.,12.0,0.,12.0
1979-07-16 09:01:39.280 ,1,1,0.,12.0,0.,12.0,0.,12.0,0.,12.0
1979-07-16 09:01:51.280 ,1,1,0.,12.0,0.,12.0,0.,12.0,0.,12.0
1979-07-16 09:02:03.280 ,1,0,0.,12.0,0.,12.0,0.,12.0,0.,12.0
1979-07-16 09:02:15.280 ,1,0,0.,12.0,0.,12.0,0.,12.0,0.,12.0
1979-07-16 09:02:27.280 ,2,1,0.,12.0,0.,12.0,0.,12.0,0.,12.0
1979-07-16 09:02:39.280 ,2,1,0.,12.0,0.,12.0,0.,12.0,0.,12.0
1979-07-16 09:02:51.280 ,2,0,0.,12.0,0.,12.0,0.,12.0,0.,12.0
1979-07-16 09:03:03.280 ,2,0,0.,12.0,0.,12.0,0.,12.0,0.,12.0
1979-07-16 09:03:15.280 ,3,1,0.,12.0,0.,12.0,0.,12.0,0.,12.0
1979-07-16 09:03:27.280 ,3,1,0.,12.0,0.,12.0,0.,12.0,0.,12.0
1979-07-16 09:03:39.280 ,3,0,0.,12.0,0.,12.0,0.,12.0,0.,12.0
1979-07-16 09:03:51.280 ,3,0,0.,12.0,0.,12.0,0.,12.0,0.,12.0
1979-07-16 09:04:03.280 ,4,1,0.,12.0,0.,12.0,0.,12.0,0.,12.0
1979-07-16 09:04:15.280 ,4,1,0.,12.0,0.,12.0,0.,12.0,0.,12.0
1979-07-16 09:04:27.270 ,4,0,0.,12.0,0.,12.0,0.,12.0,0.,12.0
1979-07-16 09:04:39.270 ,4,0,0.,12.0,0.,12.0,0.,12.0,0.,12.0
1979-07-16 09:04:51.270 ,5,1,0.,12.0,0.,12.0,0.,12.0,0.,12.0
1979-07-16 09:05:03.270 ,5,1,0.,12.0,0.,12.0,0.,12.0,0.,12.0
1979-07-16 09:05:15.270 ,5,0,0.,12.0,0.,12.0,0.,12.0,0.,12.0
1979-07-16 09:05:27.270 ,5,0,0.,12.0,0.,12.0,0.,12.0,0.,12.0
1979-07-16 09:05:39.270 ,6,1,0.,12.0,0.,12.0,0.,12.0,0.,12.0
1979-07-16 09:05:51.270 ,6,1,0.,12.0,0.,12.0,0.,12.0,0.,12.0
1979-07-16 09:06:03.270 ,6,0,0.,12.0,0.,12.0,0.,12.0,0.,12.0
1979-07-16 09:06:15.270 ,6,0,0.,12.0,0.,12.0,0.,12.0,0.,12.0
1979-07-16 09:06:27.270 ,7,0,1.,12.0,0.,12.0,0.,12.0,0.,12.0
1979-07-16 09:06:39.270 ,7,0,0.,12.0,0.,12.0,0.,12.0,0.,12.0
1979-07-16 09:06:51.270 ,7,0,0.,12.0,0.,12.0,0.,12.0,0.,12.0
1979-07-16 09:07:03.270 ,7,0,0.,12.0,0.,12.0,0.,12.0,0.,12.0
1979-07-16 09:07:15.270 ,4,1,0.,12.0,0.,12.0,0.,12.0,0.,12.0
1979-07-16 09:07:27.270 ,4,1,0.,12.0,0.,12.0,0.,12.0,0.,12.0
1979-07-16 09:07:39.270 ,0,1,0.,12.0,0.,12.0,0.,12.0,0.,12.0
1979-07-16 09:07:51.270 ,0,1,0.,12.0,0.,12.0,0.,12.0,0.,12.0
1979-07-16 09:08:03.270 ,3,1,0.,12.0,0.,12.0,0.,12.0,0.,12.0
1979-07-16 09:08:15.270 ,3,1,0.,12.0,0.,12.0,0.,12.0,0.,12.0
1979-07-16 09:08:27.270 ,7,1,0.,12.0,0.,12.0,0.,12.0,0.,12.0
1979-07-16 09:08:39.280 ,7,1,0.,12.0,0.,12.0,0.,12.0,0.,12.0
1979-07-16 09:08:51.270 ,4,1,0.,12.0,0.,12.0,0.,12.0,0.,12.0
1979-07-16 09:09:03.280 ,4,1,0.,12.0,0.,12.0,0.,12.0,0.,12.0
1979-07-16 09:09:15.270 ,0,1,0.,12.0,0.,12.0,0.,12.0,0.,12.0
1979-07-16 09:09:27.280 ,0,1,0.,12.0,0.,12.0,0.,12.0,0.,12.0
1979-07-16 09:09:39.270 ,3,1,0.,12.0,0.,12.0,0.,12.0,0.,12.0
1979-07-16 09:09:51.280 ,3,1,0.,12.0,0.,12.0,0.,12.0,0.,12.0
1979-07-16 09:10:03.270 ,7,1,0.,12.0,0.,12.0,0.,12.0,0.,12.0
1979-07-16 09:10:15.280 ,7,1,0.,12.0,0.,12.0,0.,12.0,0.,12.0
1979-07-16 09:10:27.270 ,4,1,0.,12.0,0.,12.0,0.,12.0,0.,12.0
1979-07-16 09:10:39.280 ,4,1,0.,12.0,0.,12.0,0.,12.0,0.,12.0
1979-07-16 09:10:51.270 ,0,1,0.,12.0,0.,12.0,0.,12.0,0.,12.0
1979-07-16 09:11:03.280 ,0,1,0.,12.0,0.,12.0,0.,12.0,0.,12.0
1979-07-16 09:11:15.270 ,3,1,0.,12.0,0.,12.0,0.,12.0,0.,12.0
1979-07-16 09:11:27.280 ,3,1,0.,12.0,0.,12.0,0.,12.0,0.,12.0
1979-07-16 09:11:39.270 ,7,1,0.,12.0,0.,12.0,0.,12.0,0.,12.0
1979-07-16 09:11:51.280 ,7,1,0.,12.0,0.,12.0,0.,12.0,0.,12.0
1979-07-16 09:12:03.270 ,4,1,0.,12.0,0.,12.0,0.,12.0,0.,12.0
1979-07-16 09:12:15.280 ,4,1,0.,12.0,0.,12.0,0.,12.0,0.,12.0
1979-07-16 09:12:27.270 ,0,1,0.,12.0,0.,12.0,0.,12.0,0.,12.0
1979-07-16 09:12:39.280 ,0,1,0.,12.0,0.,12.0,0.,12.0,0.,12.0
1979-07-16 09:12:51.270 ,3,1,0.,12.0,0.,12.0,0.,12.0,0.,12.0
1979-07-16 09:13:03.280 ,3,1,0.,12.0,0.,12.0,0.,12.0,0.,12.0
1979-07-16 09:13:15.270 ,7,1,0.,12.0,0.,12.0,0.,12.0,0.,12.0
1979-07-16 09:13:27.280 ,7,1,0.,12.0,0.,12.0,0.,12.0,0.,12.0
1979-07-16 09:13:39.270 ,4,1,0.,12.0,0.,12.0,0.,12.0,0.,12.0
1979-07-16 09:13:51.280 ,4,1,0.,12.0,0.,12.0,0.,12.0,0.,12.0
1979-07-16 09:14:03.270 ,0,1,0.,12.0,0.,12.0,0.,12.0,0.,12.0
1979-07-16 09:14:15.270 ,0,1,0.,12.0,0.,12.0,0.,12.0,0.,12.0
1979-07-16 09:14:27.270 ,3,1,0.,12.0,0.,12.0,0.,12.0,0.,12.0
1979-07-16 09:14:39.280 ,3,1,0.,12.0,0.,12.0,0.,12.0,0.,12.0
1979-07-16 09:14:51.270 ,7,1,0.,12.0,0.,12.0,0.,12.0,0.,12.0
1979-07-16 09:15:03.280 ,7,1,0.,12.0,0.,12.0,0.,12.0,0.,12.0
1979-07-16 09:15:15.270 ,4,1,0.,12.0,0.,12.0,0.,12.0,0.,12.0
1979-07-16 09:15:27.280 ,4,1,0.,12.0,0.,12.0,0.,12.0,0.,12.0
1979-07-16 09:15:39.270 ,0,1,0.,12.0,0.,12.0,0.,12.0,0.,12.0
1979-07-16 09:15:51.280 ,0,1,0.,12.0,0.,12.0,0.,12.0,0.,12.0
1979-07-16 09:16:03.270 ,3,1,0.,12.0,0.,12.0,0.,12.0,0.,12.0
1979-07-16 09:16:15.270 ,3,1,0.,12.0,0.,12.0,0.,12.0,0.,12.0
1979-07-16 09:16:27.270 ,7,1,0.,12.0,0.,12.0,0.,12.0,0.,12.0
1979-07-16 09:16:39.280 ,7,1,0.,12.0,0.,12.0,0.,12.0,0.,12.0
1979-07-16 09:16:51.270 ,4,1,0.,12.0,0.,12.0,0.,12.0,0.,12.0
1979-07-16 09:17:03.280 ,4,1,0.,12.0,0.,12.0,0.,12.0,0.,12.0
1979-07-16 09:17:15.280 ,0,1,0.,12.0,0.,12.0,0.,12.0,0.,12.0
1979-07-16 09:17:27.280 ,0,1,0.,12.0,0.,12.0,0.,12.0,0.,12.0
1979-07-16 09:17:39.280 ,0,0,0.,12.0,0.,12.0,0.,12.0,0.,12.0
1979-07-16 09:17:51.280 ,0,0,0.,12.0,0.,12.0,0.,12.0,0.,12.0
1979-07-16 09:18:03.280 ,0,0,0.,12.0,0.,12.0,0.,12.0,0.,12.0
1979-07-16 09:18:15.280 ,0,0,0.,12.0,0.,12.0,0.,12.0,0.,12.0
1979-07-16 09:18:27.270 ,5,1,0.,12.0,0.,12.0,0.,12.0,0.,12.0
1979-07-16 09:18:39.270 ,5,1,0.,12.0,0.,12.0,0.,12.0,0.,12.0
1979-07-16 09:18:51.270 ,5,0,0.,12.0,0.,12.0,0.,12.0,0.,12.0
1979-07-16 09:19:03.270 ,5,0,0.,12.0,0.,12.0,0.,12.0,0.,12.0
1979-07-16 09:19:15.270 ,4,1,0.,12.0,0.,12.0,0.,12.0,0.,12.0
1979-07-16 09:19:27.270 ,4,1,0.,12.0,0.,12.0,0.,12.0,0.,12.0
1979-07-16 09:19:39.270 ,4,0,0.,12.0,0.,12.0,0.,12.0,0.,12.0
1979-07-16 09:19:51.270 ,4,0,0.,12.0,0.,12.0,0.,12.0,0.,12.0
1979-07-16 09:20:03.270 ,3,1,0.,12.0,0.,12.0,0.,12.0,0.,12.0
1979-07-16 09:20:15.270 ,3,1,0.,12.0,0.,12.0,0.,12.0,0.,12.0
1979-07-16 09:20:27.270 ,3,0,0.,12.0,0.,12.0,0.,12.0,0.,12.0
1979-07-16 09:20:39.270 ,3,0,0.,12.0,0.,12.0,0.,12.0,0.,12.0
1979-07-16 09:20:51.270 ,2,1,0.,12.0,0.,12.0,0.,12.0,0.,12.0
1979-07-16 09:21:03.270 ,2,1,0.,12.0,0.,12.0,0.,12.0,0.,12.0
1979-07-16 09:21:15.270 ,2,0,1.,12.0,0.,12.0,0.,12.0,0.,12.0
1979-07-16 09:21:27.270 ,2,0,0.,12.0,0.,12.0,0.,12.0,0.,12.0
1979-07-16 09:21:39.270 ,1,1,0.,12.0,0.,12.0,0.,12.0,0.,12.0
1979-07-16 09:21:51.270 ,1,1,0.,12.0,0.,12.0,0.,12.0,0.,12.0
1979-07-16 09:22:03.270 ,1,0,0.,12.0,0.,12.0,0.,12.0,0.,12.0
1979-07-16 09:22:15.270 ,1,0,0.,12.0,0.,12.0,0.,12.0,0.,12.0
1979-07-16 09:22:27.270 ,0,1,0.,12.0,0.,12.0,0.,12.0,0.,12.0
1979-07-16 09:22:39.270 ,0,1,0.,12.0,0.,12.0,0.,12.0,0.,12.0
1979-07-16 09:22:51.270 ,0,0,0.,12.0,0.,12.0,0.,12.0,0.,12.0
1979-07-16 09:23:03.270 ,0,0,0.,12.0,0.,12.0,0.,12.0,0.,12.0
1979-07-16 09:23:15.270 ,0,1,0.,12.0,0.,12.0,0.,12.0,0.,12.0
1979-07-16 09:23:27.270 ,0,1,0.,12.0,0.,12.0,0.,12.0,0.,12.0
1979-07-16 09:23:39.270 ,0,0,,0,,0,,0,,0
1979-07-16 09:23:51.270 ,0,0,0.,12.0,0.,12.0,0.,12.0,0.,12.0
1979-07-16 09:24:03.270 ,1,1,0.,12.0,0.,12.0,0.,12.0,0.,12.0
1979-07-16 09:24:15.270 ,1,1,0.,12.0,0.,12.0,0.,12.0,0.,12.0
1979-07-16 09:24:27.270 ,1,0,0.,12.0,0.,12.0,0.,12.0,0.,12.0
1979-07-16 09:24:39.270 ,1,0,0.,12.0,0.,12.0,0.,12.0,0.,12.0
1979-07-16 09:24:51.270 ,2,1,0.,12.0,0.,12.0,0.,12.0,0.,12.0
1979-07-16 09:25:03.270 ,2,1,0.,12.0,0.,12.0,0.,12.0,0.,12.0
1979-07-16 09:25:15.270 ,2,0,0.,12.0,0.,12.0,0.,12.0,0.,12.0
1979-07-16 09:25:27.270 ,2,0,0.,12.0,0.,12.0,0.,12.0,0.,12.0
1979-07-16 09:25:39.270 ,3,1,0.,12.0,0.,12.0,0.,12.0,0.,12.0
1979-07-16 09:25:51.270 ,3,1,0.,12.0,0.,12.0,0.,12.0,0.,12.0
1979-07-16 09:26:03.270 ,3,0,0.,12.0,0.,12.0,0.,12.0,0.,12.0
1979-07-16 09:26:15.270 ,3,0,0.,12.0,0.,12.0,0.,12.0,0.,12.0
1979-07-16 09:26:27.270 ,4,1,0.,12.0,0.,12.0,0.,12.0,0.,12.0
1979-07-16 09:26:39.270 ,4,1,0.,12.0,0.,12.0,0.,12.0,0.,12.0
1979-07-16 09:26:51.270 ,4,0,0.,12.0,0.,12.0,0.,12.0,0.,12.0
1979-07-16 09:27:03.270 ,4,0,0.,12.0,0.,12.0,0.,12.0,0.,12.0
1979-07-16 09:27:15.270 ,5,1,0.,12.0,0.,12.0,0.,12.0,0.,12.0
1979-07-16 09:27:27.270 ,5,1,0.,12.0,0.,12.0,0.,12.0,0.,12.0
1979-07-16 09:27:39.270 ,5,0,0.,12.0,0.,12.0,0.,12.0,0.,12.0
1979-07-16 09:27:51.270 ,5,0,0.,12.0,0.,12.0,0.,12.0,0.,12.0
1979-07-16 09:28:03.270 ,6,1,0.,12.0,0.,12.0,0.,12.0,0.,12.0
1979-07-16 09:28:15.270 ,6,1,0.,12.0,0.,12.0,0.,12.0,0.,12.0
1979-07-16 09:28:27.270 ,6,0,0.,12.0,0.,12.0,0.,12.0,0.,12.0
1979-07-16 09:28:39.270 ,6,0,0.,12.0,0.,12.0,0.,12.0,0.,12.0
1979-07-16 09:28:51.270 ,7,1,0.,12.0,0.,12.0,0.,12.0,0.,12.0
1979-07-16 09:29:03.270 ,7,1,0.,12.0,0.,12.0,0.,12.0,0.,12.0
1979-07-16 09:29:15.270 ,7,0,0.,12.0,0.,12.0,0.,12.0,0.,12.0
1979-07-16 09:29:27.270 ,7,0,0.,12.0,0.,12.0,0.,12.0,0.,12.0
1979-07-16 09:29:39.270 ,7,1,0.,12.0,0.,12.0,0.,12.0,0.,12.0
1979-07-16 09:29:51.270 ,7,1,0.,12.0,0.,12.0,0.,12.0,0.,12.0
1979-07-16 09:30:03.270 ,7,0,0.,12.0,0.,12.0,0.,12.0,0.,12.0
1979-07-16 09:30:15.270 ,7,0,0.,12.0,0.,12.0,0.,12.0,0.,12.0
1979-07-16 09:30:27.270 ,6,1,0.,12.0,0.,12.0,0.,12.0,0.,12.0
1979-07-16 09:30:39.270 ,6,1,0.,12.0,0.,12.0,0.,12.0,0.,12.0
1979-07-16 09:30:51.270 ,6,0,0.,12.0,0.,12.0,0.,12.0,0.,12.0
1979-07-16 09:31:03.270 ,6,0,0.,12.0,0.,12.0,0.,12.0,0.,12.0
1979-07-16 09:31:15.270 ,5,1,0.,12.0,0.,12.0,0.,12.0,0.,12.0
1979-07-16 09:31:27.270 ,5,1,0.,12.0,0.,12.0,0.,12.0,0.,12.0
1979-07-16 09:31:39.270 ,5,0,0.,12.0,0.,12.0,0.,12.0,0.,12.0
1979-07-16 09:31:51.270 ,5,0,0.,12.0,0.,12.0,0.,12.0,0.,12.0
1979-07-16 09:32:03.270 ,4,1,0.,12.0,0.,12.0,0.,12.0,0.,12.0
1979-07-16 09:32:15.270 ,4,1,1.,12.0,0.,12.0,0.,12.0,0.,12.0
1979-07-16 09:32:27.270 ,4,0,0.,12.0,0.,12.0,0.,12.0,0.,12.0
1979-07-16 09:32:39.270 ,4,0,0.,12.0,0.,12.0,0.,12.0,0.,12.0
1979-07-16 09:32:51.270 ,3,1,0.,12.0,0.,12.0,0.,12.0,0.,12.0
1979-07-16 09:33:03.270 ,3,1,0.,12.0,0.,12.0,0.,12.0,0.,12.0
1979-07-16 09:33:15.270 ,3,0,1.,12.0,0.,12.0,0.,12.0,0.,12.0
1979-07-16 09:33:27.270 ,3,0,0.,12.0,0.,12.0,0.,12.0,0.,12.0
1979-07-16 09:33:39.270 ,2,1,0.,12.0,0.,12.0,0.,12.0,0.,12.0
1979-07-16 09:33:51.270 ,2,1,0.,12.0,0.,12.0,0.,12.0,0.,12.0
1979-07-16 09:34:03.270 ,2,0,0.,12.0,0.,12.0,0.,12.0,0.,12.0
1979-07-16 09:34:15.270 ,2,0,0.,12.0,0.,12.0,0.,12.0,0.,12.0
1979-07-16 09:34:27.270 ,1,1,0.,12.0,0.,12.0,0.,12.0,0.,12.0
1979-07-16 09:34:39.270 ,1,1,0.,12.0,0.,12.0,0.,12.0,0.,12.0
1979-07-16 09:34:51.270 ,1,0,0.,12.0,0.,12.0,0.,12.0,0.,12.0
1979-07-16 09:35:03.270 ,1,0,0.,12.0,0.,12.0,0.,12.0,0.,12.0
1979-07-16 09:35:15.270 ,0,1,0.,12.0,0.,12.0,0.,12.0,0.,12.0
1979-07-16 09:35:27.270 ,0,1,0.,12.0,0.,12.0,0.,12.0,0.,12.0
1979-07-16 09:35:39.270 ,0,0,0.,12.0,0.,12.0,0.,12.0,0.,12.0
1979-07-16 09:35:51.270 ,0,0,0.,12.0,0.,12.0,0.,12.0,0.,12.0
1979-07-16 09:36:03.270 ,0,1,0.,12.0,0.,12.0,0.,12.0,0.,12.0
1979-07-16 09:36:15.270 ,0,1,0.,12.0,0.,12.0,0.,12.0,0.,12.0
1979-07-16 09:36:27.270 ,0,0,0.,12.0,0.,12.0,0.,12.0,0.,12.0
1979-07-16 09:36:39.270 ,0,0,0.,12.0,0.,12.0,0.,12.0,0.,12.0
1979-07-16 09:36:51.270 ,1,1,0.,12.0,0.,12.0,0.,12.0,0.,12.0
1979-07-16 09:37:03.270 ,1,1,0.,12.0,0.,12.0,0.,12.0,0.,12.0
1979-07-16 09:37:15.270 ,1,0,0.,12.0,0.,12.0,0.,12.0,0.,12.0
1979-07-16 09:37:27.270 ,1,0,0.,12.0,0.,12.0,0.,12.0,0.,12.0
1979-07-16 09:37:39.270 ,2,1,0.,12.0,0.,12.0,0.,12.0,0.,12.0
1979-07-16 09:37:51.270 ,2,1,0.,12.0,0.,12.0,0.,12.0,0.,12.0
1979-07-16 09:38:03.270 ,2,0,0.,12.0,0.,12.0,0.,12.0,0.,12.0
1979-07-16 09:38:15.270 ,2,0,0.,12.0,0.,12.0,0.,12.0,0.,12.0
1979-07-16 09:38:27.270 ,3,1,0.,12.0,0.,12.0,0.,12.0,0.,12.0
1979-07-16 09:38:39.270 ,3,1,0.,12.0,0.,12.0,0.,12.0,0.,12.0
1979-07-16 09:38:51.270 ,3,0,0.,12.0,0.,12.0,0.,12.0,0.,12.0
1979-07-16 09:39:03.270 ,3,0,0.,12.0,0.,12.0,0.,12.0,0.,12.0
1979-07-16 09:39:15.270 ,4,1,0.,12.0,0.,12.0,0.,12.0,0.,12.0
1979-07-16 09:39:27.270 ,4,1,0.,12.0,0.,12.0,0.,12.0,0.,12.0
1979-07-16 09:39:39.270 ,4,0,0.,12.0,0.,12.0,0.,12.0,0.,12.0
1979-07-16 09:39:51.270 ,4,0,0.,12.0,0.,12.0,0.,12.0,0.,12.0
1979-07-16 09:40:03.270 ,5,1,0.,12.0,0.,12.0,0.,12.0,0.,12.0
1979-07-16 09:40:15.270 ,5,1,0.,12.0,0.,12.0,0.,12.0,0.,12.0
1979-07-16 09:40:27.270 ,5,0,0.,12.0,0.,12.0,0.,12.0,0.,12.0
1979-07-16 09:40:39.270 ,5,0,0.,12.0,0.,12.0,0.,12.0,0.,12.0
1979-07-16 09:40:51.270 ,6,1,0.,12.0,0.,12.0,0.,12.0,0.,12.0
1979-07-16 09:41:03.270 ,6,1,0.,12.0,0.,12.0,0.,12.0,0.,12.0
1979-07-16 09:41:15.270 ,6,0,0.,12.0,0.,12.0,0.,12.0,0.,12.0
1979-07-16 09:41:27.270 ,6,0,0.,12.0,0.,12.0,0.,12.0,0.,12.0
1979-07-16 09:41:39.270 ,7,1,0.,12.0,0.,12.0,0.,12.0,0.,12.0
1979-07-16 09:41:51.270 ,7,1,0.,12.0,0.,12.0,0.,12.0,0.,12.0
1979-07-16 09:42:03.270 ,7,0,0.,12.0,0.,12.0,0.,12.0,0.,12.0
1979-07-16 09:42:15.270 ,7,0,0.,12.0,0.,12.0,0.,12.0,0.,12.0
1979-07-16 09:42:27.270 ,7,1,0.,12.0,0.,12.0,0.,12.0,0.,12.0
1979-07-16 09:42:39.270 ,7,1,0.,12.0,0.,12.0,0.,12.0,0.,12.0
1979-07-16 09:42:51.270 ,7,0,0.,12.0,0.,12.0,0.,12.0,0.,12.0
1979-07-16 09:43:03.270 ,7,0,0.,12.0,0.,12.0,0.,12.0,0.,12.0
1979-07-16 09:43:15.270 ,6,1,0.,12.0,0.,12.0,0.,12.0,0.,12.0
1979-07-16 09:43:27.270 ,6,1,0.,12.0,0.,12.0,0.,12.0,0.,12.0
1979-07-16 09:43:39.270 ,6,0,0.,12.0,0.,12.0,0.,12.0,0.,12.0
1979-07-16 09:43:51.270 ,6,0,0.,12.0,0.,12.0,0.,12.0,0.,12.0
1979-07-16 09:44:03.270 ,5,1,0.,12.0,0.,12.0,0.,12.0,0.,12.0
1979-07-16 09:44:15.270 ,5,1,0.,12.0,0.,12.0,0.,12.0,0.,12.0
1979-07-16 09:44:27.270 ,5,0,0.,12.0,0.,12.0,0.,12.0,0.,12.0
1979-07-16 09:44:39.270 ,5,0,0.,12.0,0.,12.0,0.,12.0,0.,12.0
1979-07-16 09:44:51.270 ,4,1,0.,12.0,0.,12.0,0.,12.0,0.,12.0
1979-07-16 09:45:03.270 ,4,1,0.,12.0,0.,12.0,0.,12.0,0.,12.0
1979-07-16 09:45:15.270 ,4,0,0.,12.0,0.,12.0,0.,12.0,0.,12.0
1979-07-16 09:45:27.270 ,4,0,0.,12.0,0.,12.0,0.,12.0,0.,12.0
1979-07-16 09:45:39.270 ,3,1,1.,12.0,0.,12.0,0.,12.0,0.,12.0
1979-07-16 09:45:51.270 ,3,1,0.,12.0,0.,12.0,0.,12.0,0.,12.0
1979-07-16 09:46:03.270 ,3,0,0.,12.0,0.,12.0,0.,12.0,0.,12.0
1979-07-16 09:46:15.270 ,3,0,0.,12.0,0.,12.0,0.,12.0,0.,12.0
1979-07-16 09:46:27.270 ,2,1,0.,12.0,0.,12.0,0.,12.0,0.,12.0
1979-07-16 09:46:39.270 ,2,1,0.,12.0,0.,12.0,0.,12.0,0.,12.0
1979-07-16 09:46:51.270 ,2,0,0.,12.0,0.,12.0,0.,12.0,0.,12.0
1979-07-16 09:47:03.270 ,2,0,0.,12.0,0.,12.0,0.,12.0,0.,12.0
1979-07-16 09:47:15.270 ,1,1,0.,12.0,0.,12.0,0.,12.0,0.,12.0
1979-07-16 09:47:27.270 ,1,1,0.,12.0,0.,12.0,0.,12.0,0.,12.0
1979-07-16 09:47:39.270 ,1,0,0.,12.0,0.,12.0,0.,12.0,0.,12.0
1979-07-16 09:47:51.270 ,1,0,0.,12.0,0.,12.0,0.,12.0,0.,12.0
1979-07-16 09:48:03.270 ,0,0,0.,12.0,0.,12.0,0.,12.0,0.,12.0
1979-07-16 09:48:15.270 ,0,0,0.,12.0,0.,12.0,0.,12.0,0.,12.0
1979-07-16 09:48:27.270 ,0,0,0.,12.0,0.,12.0,0.,12.0,0.,12.0
1979-07-16 09:48:39.270 ,0,0,0.,12.0,0.,12.0,0.,12.0,0.,12.0
1979-07-16 09:48:51.270 ,0,1,0.,12.0,0.,12.0,0.,12.0,0.,12.0
1979-07-16 09:49:03.270 ,0,1,0.,12.0,0.,12.0,0.,12.0,0.,12.0
1979-07-16 09:49:15.270 ,0,0,0.,12.0,0.,12.0,0.,12.0,0.,12.0
1979-07-16 09:49:27.270 ,0,0,0.,12.0,0.,12.0,0.,12.0,0.,12.0
1979-07-16 09:49:39.270 ,1,1,0.,12.0,0.,12.0,0.,12.0,0.,12.0
1979-07-16 09:49:51.270 ,1,1,0.,12.0,0.,12.0,0.,12.0,0.,12.0
1979-07-16 09:50:03.270 ,1,0,0.,12.0,0.,12.0,0.,12.0,0.,12.0
1979-07-16 09:50:15.270 ,1,0,0.,12.0,0.,12.0,0.,12.0,0.,12.0
1979-07-16 09:50:27.270 ,2,1,0.,12.0,0.,12.0,0.,12.0,0.,12.0
1979-07-16 09:50:39.270 ,2,1,0.,12.0,0.,12.0,0.,12.0,0.,12.0
1979-07-16 09:50:51.270 ,2,0,0.,12.0,0.,12.0,0.,12.0,0.,12.0
1979-07-16 09:51:03.270 ,2,0,0.,12.0,0.,12.0,0.,12.0,0.,12.0
1979-07-16 09:51:15.270 ,3,1,0.,12.0,0.,12.0,0.,12.0,0.,12.0
1979-07-16 09:51:27.270 ,3,1,0.,12.0,0.,12.0,0.,12.0,0.,12.0
1979-07-16 09:51:39.270 ,3,0,0.,12.0,0.,12.0,0.,12.0,0.,12.0
1979-07-16 09:51:51.270 ,3,0,0.,12.0,0.,12.0,0.,12.0,0.,12.0
1979-07-16 09:52:03.270 ,4,1,0.,12.0,0.,12.0,0.,12.0,0.,12.0
1979-07-16 09:52:15.270 ,4,1,0.,12.0,0.,12.0,0.,12.0,0.,12.0
1979-07-16 09:52:27.270 ,4,0,0.,12.0,0.,12.0,0.,12.0,0.,12.0
1979-07-16 09:52:39.270 ,4,0,0.,12.0,0.,12.0,0.,12.0,0.,12.0
1979-07-16 09:52:51.270 ,5,1,0.,12.0,0.,12.0,0.,12.0,0.,12.0
1979-07-16 09:53:03.270 ,5,1,0.,12.0,0.,12.0,0.,12.0,0.,12.0
1979-07-16 09:53:15.270 ,5,0,0.,12.0,0.,12.0,0.,12.0,0.,12.0
1979-07-16 09:53:27.270 ,5,0,0.,12.0,0.,12.0,0.,12.0,0.,12.0
1979-07-16 09:53:39.270 ,6,1,0.,12.0,0.,12.0,0.,12.0,0.,12.0
1979-07-16 09:53:51.270 ,6,1,0.,12.0,0.,12.0,0.,12.0,0.,12.0
1979-07-16 09:54:03.270 ,6,0,0.,12.0,0.,12.0,0.,12.0,0.,12.0
1979-07-16 09:54:15.270 ,6,0,0.,12.0,0.,12.0,0.,12.0,0.,12.0
1979-07-16 09:54:27.270 ,7,0,0.,12.0,0.,12.0,0.,12.0,0.,12.0
1979-07-16 09:54:39.270 ,7,0,0.,12.0,0.,12.0,0.,12.0,0.,12.0
1979-07-16 09:54:51.270 ,7,0,0.,12.0,0.,12.0,0.,12.0,0.,12.0
1979-07-16 09:55:03.270 ,7,0,0.,12.0,0.,12.0,0.,12.0,0.,12.0
1979-07-16 09:55:15.270 ,4,1,0.,12.0,0.,12.0,0.,12.0,0.,12.0
1979-07-16 09:55:27.270 ,4,1,0.,12.0,0.,12.0,0.,12.0,0.,12.0
1979-07-16 09:55:39.270 ,0,1,0.,12.0,0.,12.0,0.,12.0,0.,12.0
1979-07-16 09:55:51.270 ,0,1,0.,12.0,0.,12.0,0.,12.0,0.,12.0
1979-07-16 09:56:03.270 ,3,1,0.,12.0,0.,12.0,0.,12.0,0.,12.0
1979-07-16 09:56:15.270 ,3,1,0.,12.0,0.,12.0,0.,12.0,0.,12.0
1979-07-16 09:56:27.270 ,7,1,0.,12.0,0.,12.0,0.,12.0,0.,12.0
1979-07-16 09:56:39.270 ,7,1,0.,12.0,0.,12.0,0.,12.0,0.,12.0
1979-07-16 09:56:51.270 ,4,1,0.,12.0,0.,12.0,0.,12.0,0.,12.0
1979-07-16 09:57:03.270 ,4,1,0.,12.0,0.,12.0,0.,12.0,0.,12.0
1979-07-16 09:57:15.270 ,0,1,0.,12.0,0.,12.0,0.,12.0,0.,12.0
1979-07-16 09:57:27.270 ,0,1,0.,12.0,0.,12.0,0.,12.0,0.,12.0
1979-07-16 09:57:39.270 ,3,1,0.,12.0,0.,12.0,0.,12.0,0.,12.0
1979-07-16 09:57:51.270 ,3,1,0.,12.0,0.,12.0,0.,12.0,0.,12.0
1979-07-16 09:58:03.270 ,7,1,1.,12.0,0.,12.0,0.,12.0,0.,12.0
1979-07-16 09:58:15.270 ,7,1,0.,12.0,0.,12.0,0.,12.0,0.,12.0
1979-07-16 09:58:27.270 ,4,1,0.,12.0,0.,12.0,0.,12.0,0.,12.0
1979-07-16 09:58:39.270 ,4,1,0.,12.0,0.,12.0,0.,12.0,0.,12.0
1979-07-16 09:58:51.270 ,0,1,0.,12.0,0.,12.0,0.,12.0,0.,12.0
1979-07-16 09:59:03.270 ,0,1,0.,12.0,0.,12.0,0.,12.0,0.,12.0
1979-07-16 09:59:15.270 ,3,1,0.,12.0,0.,12.0,0.,12.0,0.,12.0
1979-07-16 09:59:27.270 ,3,1,0.,12.0,0.,12.0,0.,12.0,0.,12.0
1979-07-16 09:59:39.270 ,7,1,0.,12.0,0.,12.0,0.,12.0,0.,12.0
1979-07-16 09:59:51.270 ,7,1,0.,12.0,0.,12.0,0.,12.0,0.,12.0
1979-07-16 10:00:03.270 ,4,1,0.,12.0,0.,12.0,0.,12.0,0.,12.0
1979-07-16 10:00:15.270 ,4,1,0.,12.0,0.,12.0,0.,12.0,0.,12.0
1979-07-16 10:00:27.270 ,0,1,0.,12.0,0.,12.0,0.,12.0,0.,12.0
1979-07-16 10:00:39.270 ,0,1,0.,12.0,0.,12.0,0.,12.0,0.,12.0
1979-07-16 10:00:51.270 ,3,1,0.,12.0,0.,12.0,0.,12.0,0.,12.0
1979-07-16 10:01:03.270 ,3,1,0.,12.0,0.,12.0,0.,12.0,0.,12.0
1979-07-16 10:01:15.270 ,7,1,0.,12.0,0.,12.0,0.,12.0,0.,12.0
1979-07-16 10:01:27.270 ,7,1,0.,12.0,0.,12.0,0.,12.0,0.,12.0
1979-07-16 10:01:39.270 ,4,1,0.,12.0,0.,12.0,0.,12.0,0.,12.0
1979-07-16 10:01:51.270 ,4,1,0.,12.0,0.,12.0,0.,12.0,0.,12.0
1979-07-16 10:02:03.270 ,0,1,0.,12.0,0.,12.0,0.,12.0,0.,12.0
1979-07-16 10:02:15.270 ,0,1,0.,12.0,0.,12.0,0.,12.0,0.,12.0
1979-07-16 10:02:27.270 ,3,1,0.,12.0,0.,12.0,0.,12.0,0.,12.0
1979-07-16 10:02:39.270 ,3,1,0.,12.0,0.,12.0,0.,12.0,0.,12.0
1979-07-16 10:02:51.270 ,7,1,0.,12.0,0.,12.0,0.,12.0,0.,12.0
1979-07-16 10:03:03.270 ,7,1,0.,12.0,0.,12.0,0.,12.0,0.,12.0
1979-07-16 10:03:15.270 ,4,1,0.,12.0,0.,12.0,0.,12.0,0.,12.0
1979-07-16 10:03:27.270 ,4,1,0.,12.0,0.,12.0,0.,12.0,0.,12.0
1979-07-16 10:03:39.270 ,0,1,0.,12.0,0.,12.0,0.,12.0,0.,12.0
1979-07-16 10:03:51.270 ,0,1,0.,12.0,0.,12.0,0.,12.0,0.,12.0
1979-07-16 10:04:03.270 ,3,1,0.,12.0,0.,12.0,0.,12.0,0.,12.0
1979-07-16 10:04:15.270 ,3,1,0.,12.0,0.,12.0,0.,12.0,0.,12.0
1979-07-16 10:04:27.270 ,7,1,0.,12.0,0.,12.0,0.,12.0,0.,12.0
1979-07-16 10:04:39.270 ,7,1,0.,12.0,0.,12.0,0.,12.0,0.,12.0
1979-07-16 10:04:51.270 ,4,1,0.,12.0,0.,12.0,0.,12.0,0.,12.0
1979-07-16 10:05:03.270 ,4,1,0.,12.0,0.,12.0,0.,12.0,0.,12.0
1979-07-16 10:05:15.270 ,0,1,0.,12.0,0.,12.0,0.,12.0,0.,12.0
1979-07-16 10:05:27.270 ,0,1,0.,12.0,0.,12.0,0.,12.0,0.,12.0
1979-07-16 10:05:39.270 ,0,0,0.,12.0,0.,12.0,0.,12.0,0.,12.0
1979-07-16 10:05:51.270 ,0,0,0.,12.0,0.,12.0,0.,12.0,0.,12.0
1979-07-16 10:06:03.270 ,0,0,0.,12.0,0.,12.0,0.,12.0,0.,12.0
1979-07-16 10:06:15.270 ,0,0,0.,12.0,0.,12.0,0.,12.0,0.,12.0
1979-07-16 10:06:27.270 ,5,1,0.,12.0,0.,12.0,0.,12.0,0.,12.0
1979-07-16 10:06:39.270 ,5,1,0.,12.0,0.,12.0,0.,12.0,0.,12.0
1979-07-16 10:06:51.270 ,5,0,0.,12.0,0.,12.0,0.,12.0,0.,12.0
1979-07-16 10:07:03.270 ,5,0,0.,12.0,0.,12.0,0.,12.0,0.,12.0
1979-07-16 10:07:15.270 ,4,1,0.,12.0,0.,12.0,0.,12.0,0.,12.0
1979-07-16 10:07:27.270 ,4,1,0.,12.0,0.,12.0,0.,12.0,0.,12.0
1979-07-16 10:07:39.270 ,4,0,0.,12.0,0.,12.0,0.,12.0,0.,12.0
1979-07-16 10:07:51.270 ,4,0,0.,12.0,0.,12.0,0.,12.0,0.,12.0
1979-07-16 10:08:03.270 ,3,1,0.,12.0,0.,12.0,0.,12.0,0.,12.0
1979-07-16 10:08:15.270 ,3,1,0.,12.0,0.,12.0,0.,12.0,0.,12.0
1979-07-16 10:08:27.270 ,3,0,0.,12.0,0.,12.0,0.,12.0,0.,12.0
1979-07-16 10:08:39.270 ,3,0,0.,12.0,0.,12.0,0.,12.0,0.,12.0
1979-07-16 10:08:51.270 ,2,1,0.,12.0,0.,12.0,0.,12.0,0.,12.0
1979-07-16 10:09:03.270 ,2,1,0.,12.0,0.,12.0,0.,12.0,0.,12.0
1979-07-16 10:09:15.270 ,2,0,0.,12.0,0.,12.0,0.,12.0,0.,12.0
1979-07-16 10:09:27.270 ,2,0,0.,12.0,0.,12.0,0.,12.0,0.,12.0
1979-07-16 10:09:39.270 ,1,1,0.,12.0,0.,12.0,0.,12.0,0.,12.0
1979-07-16 10:09:51.270 ,1,1,0.,12.0,0.,12.0,0.,12.0,0.,12.0
1979-07-16 10:10:03.270 ,1,0,0.,12.0,0.,12.0,0.,12.0,0.,12.0
1979-07-16 10:10:15.270 ,1,0,0.,12.0,0.,12.0,0.,12.0,0.,12.0
1979-07-16 10:10:27.270 ,0,1,0.,12.0,0.,12.0,0.,12.0,0.,12.0
1979-07-16 10:10:39.270 ,0,1,0.,12.0,0.,12.0,0.,12.0,0.,12.0
1979-07-16 10:10:51.270 ,0,0,0.,12.0,0.,12.0,0.,12.0,0.,12.0
1979-07-16 10:11:03.270 ,0,0,0.,12.0,0.,12.0,0.,12.0,0.,12.0
1979-07-16 10:11:15.270 ,0,1,0.,12.0,0.,12.0,0.,12.0,0.,12.0
1979-07-16 10:11:27.270 ,0,1,0.,12.0,0.,12.0,0.,12.0,0.,12.0
1979-07-16 10:11:39.270 ,0,0,0.,12.0,0.,12.0,0.,12.0,0.,12.0
1979-07-16 10:11:51.270 ,0,0,0.,12.0,0.,12.0,0.,12.0,0.,12.0
1979-07-16 10:12:03.270 ,1,1,0.,12.0,0.,12.0,0.,12.0,0.,12.0
1979-07-16 10:12:15.270 ,1,1,0.,12.0,0.,12.0,0.,12.0,0.,12.0
1979-07-16 10:12:27.270 ,1,0,0.,12.0,0.,12.0,0.,12.0,0.,12.0
1979-07-16 10:12:39.270 ,1,0,0.,12.0,0.,12.0,0.,12.0,0.,12.0
1979-07-16 10:12:51.270 ,2,1,0.,12.0,0.,12.0,0.,12.0,0.,12.0
1979-07-16 10:13:03.270 ,2,1,0.,12.0,0.,12.0,0.,12.0,0.,12.0
1979-07-16 10:13:15.270 ,2,0,0.,12.0,0.,12.0,0.,12.0,0.,12.0
1979-07-16 10:13:27.270 ,2,0,0.,12.0,0.,12.0,0.,12.0,0.,12.0
1979-07-16 10:13:39.270 ,3,1,0.,12.0,0.,12.0,0.,12.0,0.,12.0
1979-07-16 10:13:51.270 ,3,1,0.,12.0,0.,12.0,0.,12.0,0.,12.0
1979-07-16 10:14:03.270 ,3,0,0.,12.0,0.,12.0,0.,12.0,0.,12.0
1979-07-16 10:14:15.270 ,3,0,0.,12.0,0.,12.0,0.,12.0,0.,12.0
1979-07-16 10:14:27.270 ,4,1,0.,12.0,0.,12.0,0.,12.0,0.,12.0
1979-07-16 10:14:39.270 ,4,1,0.,12.0,0.,12.0,0.,12.0,0.,12.0
1979-07-16 10:14:51.270 ,4,0,0.,12.0,0.,12.0,0.,12.0,0.,12.0
1979-07-16 10:15:03.270 ,4,0,0.,12.0,0.,12.0,0.,12.0,0.,12.0
1979-07-16 10:15:15.270 ,5,1,0.,12.0,0.,12.0,0.,12.0,0.,12.0
1979-07-16 10:15:27.270 ,5,1,0.,12.0,0.,12.0,0.,12.0,0.,12.0
1979-07-16 10:15:39.270 ,5,0,0.,12.0,0.,12.0,0.,12.0,0.,12.0
1979-07-16 10:15:51.270 ,5,0,0.,12.0,0.,12.0,0.,12.0,0.,12.0
1979-07-16 10:16:03.270 ,6,1,0.,12.0,0.,12.0,0.,12.0,0.,12.0
1979-07-16 10:16:15.270 ,6,1,0.,12.0,0.,12.0,0.,12.0,0.,12.0
1979-07-16 10:16:27.270 ,6,0,0.,12.0,0.,12.0,0.,12.0,0.,12.0
1979-07-16 10:16:39.270 ,6,0,0.,12.0,0.,12.0,0.,12.0,0.,12.0
1979-07-16 10:16:51.270 ,7,1,0.,12.0,0.,12.0,0.,12.0,0.,12.0
1979-07-16 10:17:03.270 ,7,1,0.,12.0,0.,12.0,0.,12.0,0.,12.0
1979-07-16 10:17:15.270 ,7,0,0.,12.0,0.,12.0,0.,12.0,0.,12.0
1979-07-16 10:17:27.270 ,7,0,0.,12.0,0.,12.0,0.,12.0,0.,12.0